Location: Andershausen
(51.8462°N, 9.8595°E)
Time: 07:02:11
(UTC+00:00)

Cosmos 1140 Rocket - Pass Details

Date: 18 November 2025
Orbit: 740 x 761 km, 74.1° (Epoch: 11 December)

Event Time Altitude Azimuth Distance (km) Brightness Sun altitude
Rises 16:53:02 0° 213° (SSW) 3,197 7.5 -13.2°
Reaches altitude 10° 16:55:25 10° 216° (SW) 2,274 6.7 -13.6°
Maximum altitude 17:00:32 64° 298° (WNW) 832 3.9 -14.3°
Drops below altitude 10° 17:05:39 10° 21° (NNE) 2,275 5.6 -15.1°
Enters shadow 17:06:33 - 22° (NNE) 2,618 5.9 -15.2°
